Time,TemperatureF,DewpointF,PressureIn,WindDirection,WindDirectionDegrees,WindSpeedMPH,WindSpeedGustMPH,Humidity,HourlyPrecipIn,Conditions,Clouds,dailyrainin,SoftwareType,DateUTC
2013-08-22 00:00:00,56.3,41.3,29.77,SSW,201,0.0,0.0,57,0.00,,---,0.00,VWS V14.01,2013-08-22 07:00:00,
2013-08-22 00:05:00,56.3,39.9,29.77,SSW,201,0.0,0.0,54,0.00,,---,0.00,VWS V14.01,2013-08-22 07:05:00,
2013-08-22 00:10:00,56.2,39.3,29.77,SSW,201,0.0,0.0,53,0.00,,---,0.00,VWS V14.01,2013-08-22 07:10:00,
2013-08-22 00:15:00,56.2,39.8,29.77,SSW,202,0.0,0.0,54,0.00,,---,0.00,VWS V14.01,2013-08-22 07:15:00,
2013-08-22 00:20:00,56.1,39.7,29.77,SSW,201,0.0,0.0,54,0.00,,---,0.00,VWS V14.01,2013-08-22 07:20:00,
2013-08-22 00:25:00,56.0,40.1,29.77,SSW,204,0.0,0.0,55,0.00,,---,0.00,VWS V14.01,2013-08-22 07:25:00,
2013-08-22 00:30:00,55.8,39.9,29.77,SSW,204,0.0,0.0,55,0.00,,---,0.00,VWS V14.01,2013-08-22 07:30:00,
2013-08-22 00:35:00,55.8,40.8,29.77,SSW,204,0.0,0.0,57,0.00,,---,0.00,VWS V14.01,2013-08-22 07:35:00,
2013-08-22 00:40:00,55.7,41.2,29.77,SSW,204,0.0,0.0,58,0.00,,---,0.00,VWS V14.01,2013-08-22 07:40:00,
2013-08-22 00:45:00,55.4,40.0,29.77,SSW,204,0.0,0.0,56,0.00,,---,0.00,VWS V14.01,2013-08-22 07:45:00,
2013-08-22 00:50:00,55.0,40.5,29.77,SSW,204,0.0,0.0,58,0.00,,---,0.00,VWS V14.01,2013-08-22 07:50:00,
2013-08-22 00:55:00,54.9,40.9,29.77,SSW,204,0.0,0.0,59,0.00,,---,0.00,VWS V14.01,2013-08-22 07:55:00,
2013-08-22 01:00:00,54.9,41.3,29.77,SSW,207,0.0,0.0,60,0.00,,---,0.00,VWS V14.01,2013-08-22 08:00:00,
2013-08-22 01:05:00,54.8,42.0,29.77,SSW,207,0.0,0.0,62,0.00,,---,0.00,VWS V14.01,2013-08-22 08:05:00,
2013-08-22 01:10:00,54.6,41.9,29.77,SSW,207,0.0,0.0,62,0.00,,---,0.00,VWS V14.01,2013-08-22 08:10:00,
2013-08-22 01:15:00,54.4,41.2,29.77,SSW,207,0.0,0.0,61,0.00,,---,0.00,VWS V14.01,2013-08-22 08:15:00,
2013-08-22 01:20:00,54.2,41.5,29.77,SSW,207,0.0,0.0,62,0.00,,---,0.00,VWS V14.01,2013-08-22 08:20:00,
2013-08-22 01:25:00,54.1,41.8,29.77,SSW,207,0.0,0.0,63,0.00,,---,0.00,VWS V14.01,2013-08-22 08:25:00,
2013-08-22 01:30:00,54.1,41.8,29.77,SSW,207,0.0,0.0,63,0.00,,---,0.00,VWS V14.01,2013-08-22 08:30:00,
2013-08-22 01:35:00,54.0,42.5,29.76,SSW,207,0.0,0.0,65,0.00,,---,0.00,VWS V14.01,2013-08-22 08:35:00,
2013-08-22 01:40:00,54.0,41.7,29.76,SSW,207,0.0,0.0,63,0.00,,---,0.00,VWS V14.01,2013-08-22 08:40:00,
2013-08-22 01:46:00,53.9,41.2,29.76,SSW,210,0.0,0.0,62,0.00,,---,0.00,VWS V14.01,2013-08-22 08:46:00,
2013-08-22 01:51:00,53.8,41.9,29.76,SSW,210,0.0,0.0,64,0.00,,---,0.00,VWS V14.01,2013-08-22 08:51:00,
2013-08-22 01:56:00,53.5,41.2,29.76,SSW,210,0.0,0.0,63,0.00,,---,0.00,VWS V14.01,2013-08-22 08:56:00,
2013-08-22 02:01:00,53.2,40.1,29.76,SSW,210,0.0,0.0,61,0.00,,---,0.00,VWS V14.01,2013-08-22 09:01:00,
2013-08-22 02:06:00,53.0,41.6,29.76,SSW,210,0.0,0.0,65,0.00,,---,0.00,VWS V14.01,2013-08-22 09:06:00,
2013-08-22 02:11:00,52.8,40.6,29.76,SSW,210,0.0,0.0,63,0.00,,---,0.00,VWS V14.01,2013-08-22 09:11:00,
2013-08-22 02:16:00,52.6,40.8,29.76,SSW,210,0.0,0.0,64,0.00,,---,0.00,VWS V14.01,2013-08-22 09:16:00,
2013-08-22 02:21:00,52.7,41.7,29.75,SSW,210,0.0,0.0,66,0.00,,---,0.00,VWS V14.01,2013-08-22 09:21:00,
2013-08-22 02:26:00,52.8,42.5,29.76,SSW,210,0.0,0.0,68,0.00,,---,0.00,VWS V14.01,2013-08-22 09:26:00,
2013-08-22 02:31:00,52.8,41.8,29.76,SSW,210,0.0,0.0,66,0.00,,---,0.00,VWS V14.01,2013-08-22 09:31:00,
2013-08-22 02:36:00,52.8,42.2,29.75,SSW,209,0.0,0.0,67,0.00,,---,0.00,VWS V14.01,2013-08-22 09:36:00,
2013-08-22 02:41:00,52.7,42.5,29.76,SSW,209,0.0,0.0,68,0.00,,---,0.00,VWS V14.01,2013-08-22 09:41:00,
2013-08-22 02:46:00,52.7,41.3,29.75,SSW,210,0.0,0.0,65,0.00,,---,0.00,VWS V14.01,2013-08-22 09:46:00,
2013-08-22 02:51:00,52.5,41.5,29.75,SSW,210,0.0,0.0,66,0.00,,---,0.00,VWS V14.01,2013-08-22 09:51:00,
2013-08-22 02:56:00,52.4,42.2,29.75,SSW,210,0.0,0.0,68,0.00,,---,0.00,VWS V14.01,2013-08-22 09:56:00,
2013-08-22 03:01:00,52.6,42.0,29.76,SSW,209,0.0,0.0,67,0.00,,---,0.00,VWS V14.01,2013-08-22 10:01:00,
2013-08-22 03:07:00,52.6,42.0,29.76,SSW,210,0.0,0.0,67,0.00,,---,0.00,VWS V14.01,2013-08-22 10:07:00,
2013-08-22 03:12:00,52.6,41.2,29.76,SSW,210,0.0,0.0,65,0.00,,---,0.00,VWS V14.01,2013-08-22 10:12:00,
2013-08-22 03:17:00,52.5,41.5,29.76,SSW,210,0.0,0.0,66,0.00,,---,0.00,VWS V14.01,2013-08-22 10:17:00,
2013-08-22 03:22:00,52.4,42.5,29.76,SSW,210,0.0,0.0,69,0.00,,---,0.00,VWS V14.01,2013-08-22 10:22:00,
2013-08-22 03:27:00,52.4,42.9,29.76,SSW,210,0.0,0.0,70,0.00,,---,0.00,VWS V14.01,2013-08-22 10:27:00,
2013-08-22 03:32:00,52.2,42.0,29.76,SSW,209,0.0,0.0,68,0.00,,---,0.00,VWS V14.01,2013-08-22 10:32:00,
2013-08-22 03:37:00,52.1,41.9,29.76,SSW,210,0.0,0.0,68,0.00,,---,0.00,VWS V14.01,2013-08-22 10:37:00,
2013-08-22 03:42:00,52.1,41.9,29.76,SSW,209,0.0,0.0,68,0.00,,---,0.00,VWS V14.01,2013-08-22 10:42:00,
2013-08-22 03:48:00,52.1,41.1,29.76,SSW,209,0.0,0.0,66,0.00,,---,0.00,VWS V14.01,2013-08-22 10:48:00,
2013-08-22 05:29:00,54.3,41.2,29.77,SSW,210,0.0,0.0,61,0.00,,---,0.00,VWS V14.01,2013-08-22 12:29:00,
2013-08-22 05:34:00,54.7,40.7,29.76,SSW,210,0.0,0.0,59,0.00,,---,0.00,VWS V14.01,2013-08-22 12:34:00,
2013-08-22 05:39:00,55.4,40.4,29.76,SW,228,0.0,0.0,57,0.00,,---,0.00,VWS V14.01,2013-08-22 12:39:00,
2013-08-22 05:44:00,55.7,40.3,29.77,SW,228,0.0,0.0,56,0.00,,---,0.00,VWS V14.01,2013-08-22 12:44:00,
2013-08-22 05:49:00,56.1,40.6,29.77,SW,218,0.0,0.0,56,0.00,,---,0.00,VWS V14.01,2013-08-22 12:49:00,
2013-08-22 05:54:00,56.3,39.9,29.77,SW,218,0.0,0.0,54,0.00,,---,0.00,VWS V14.01,2013-08-22 12:54:00,
2013-08-22 05:59:00,56.5,40.1,29.77,SW,219,0.0,0.0,54,0.00,,---,0.00,VWS V14.01,2013-08-22 12:59:00,
2013-08-22 06:03:00,56.5,40.1,29.77,SW,219,0.0,0.0,54,0.00,,---,0.00,VWS V14.01,2013-08-22 13:03:00,
2013-08-22 06:08:00,56.3,39.9,29.77,SW,219,0.0,0.0,54,0.00,,---,0.00,VWS V14.01,2013-08-22 13:08:00,
2013-08-22 06:13:00,56.1,39.7,29.77,SW,219,0.0,0.0,54,0.00,,---,0.00,VWS V14.01,2013-08-22 13:13:00,
2013-08-22 06:18:00,56.1,39.7,29.77,SW,219,0.0,0.0,54,0.00,,---,0.00,VWS V14.01,2013-08-22 13:18:00,
2013-08-22 06:23:00,56.1,39.7,29.77,SW,219,0.0,0.0,54,0.00,,---,0.00,VWS V14.01,2013-08-22 13:23:00,
2013-08-22 06:28:00,56.5,40.1,29.78,SW,219,0.0,0.0,54,0.00,,---,0.00,VWS V14.01,2013-08-22 13:28:00,
2013-08-22 06:33:00,57.1,40.2,29.78,SW,219,0.0,0.0,53,0.00,,---,0.00,VWS V14.01,2013-08-22 13:33:00,
2013-08-22 06:38:00,57.7,39.7,29.78,SW,219,0.0,0.0,51,0.00,,---,0.00,VWS V14.01,2013-08-22 13:38:00,
2013-08-22 06:43:00,57.5,40.0,29.78,SW,219,0.0,0.0,52,0.00,,---,0.00,VWS V14.01,2013-08-22 13:43:00,
2013-08-22 06:48:00,57.1,40.2,29.79,SW,219,0.0,0.0,53,0.00,,---,0.00,VWS V14.01,2013-08-22 13:48:00,
2013-08-22 06:53:00,56.7,39.8,29.79,SW,219,0.0,0.0,53,0.00,,---,0.00,VWS V14.01,2013-08-22 13:53:00,
2013-08-22 06:58:00,56.7,40.3,29.79,SW,219,0.0,0.0,54,0.00,,---,0.00,VWS V14.01,2013-08-22 13:58:00,
2013-08-22 07:03:00,56.8,40.8,29.79,SW,219,0.0,0.0,55,0.00,,---,0.00,VWS V14.01,2013-08-22 14:03:00,
2013-08-22 07:08:00,57.0,41.0,29.79,SW,219,0.0,0.0,55,0.00,,---,0.00,VWS V14.01,2013-08-22 14:08:00,
2013-08-22 07:13:00,57.5,41.5,29.79,SW,219,0.0,0.0,55,0.00,,---,0.00,VWS V14.01,2013-08-22 14:13:00,
2013-08-22 07:18:00,58.0,41.5,29.79,SW,219,0.0,0.0,54,0.00,,---,0.00,VWS V14.01,2013-08-22 14:18:00,
2013-08-22 07:23:00,58.9,41.8,29.80,SW,218,0.0,0.0,53,0.00,,---,0.00,VWS V14.01,2013-08-22 14:23:00,
2013-08-22 07:28:00,60.1,42.4,29.79,SW,219,0.0,0.0,52,0.00,,---,0.00,VWS V14.01,2013-08-22 14:28:00,
2013-08-22 07:33:00,61.3,43.5,29.80,SW,219,0.0,0.0,52,0.00,,---,0.00,VWS V14.01,2013-08-22 14:33:00,
2013-08-22 07:38:00,62.2,43.9,29.80,SW,220,0.0,0.0,51,0.00,,---,0.00,VWS V14.01,2013-08-22 14:38:00,
2013-08-22 07:43:00,62.5,43.6,29.79,SW,219,0.0,0.0,50,0.00,,---,0.00,VWS V14.01,2013-08-22 14:43:00,
2013-08-22 07:48:00,62.5,43.1,29.80,SW,219,0.0,0.0,49,0.00,,---,0.00,VWS V14.01,2013-08-22 14:48:00,
2013-08-22 07:53:00,62.6,43.7,29.79,SW,219,0.0,0.0,50,0.00,,---,0.00,VWS V14.01,2013-08-22 14:53:00,
2013-08-22 07:58:00,62.7,43.8,29.79,SW,219,0.0,0.0,50,0.00,,---,0.00,VWS V14.01,2013-08-22 14:58:00,
2013-08-22 08:03:00,63.3,44.4,29.79,SW,220,0.0,0.0,50,0.00,,---,0.00,VWS V14.01,2013-08-22 15:03:00,
2013-08-22 08:08:00,64.0,45.0,29.79,SW,219,0.0,1.0,50,0.00,,---,0.00,VWS V14.01,2013-08-22 15:08:00,
2013-08-22 08:13:00,64.8,44.1,29.79,North,356,1.0,1.0,47,0.00,,---,0.00,VWS V14.01,2013-08-22 15:13:00,
2013-08-22 08:18:00,65.5,44.2,29.78,North,357,0.0,0.0,46,0.00,,---,0.00,VWS V14.01,2013-08-22 15:18:00,
2013-08-22 08:23:00,66.2,44.2,29.78,North,1,0.0,0.0,45,0.00,,---,0.00,VWS V14.01,2013-08-22 15:23:00,
2013-08-22 08:28:00,66.7,44.7,29.78,NNW,328,0.0,0.0,45,0.00,,---,0.00,VWS V14.01,2013-08-22 15:28:00,
2013-08-22 08:33:00,67.5,45.4,29.78,NNW,328,0.0,0.0,45,0.00,,---,0.00,VWS V14.01,2013-08-22 15:33:00,
2013-08-22 08:38:00,68.8,45.4,29.78,NNE,20,0.0,0.0,43,0.00,,---,0.00,VWS V14.01,2013-08-22 15:38:00,
2013-08-22 08:44:00,69.7,45.0,29.78,NNE,18,0.0,0.0,41,0.00,,---,0.00,VWS V14.01,2013-08-22 15:44:00,
2013-08-22 08:49:00,70.5,45.7,29.78,North,4,0.0,0.0,41,0.00,,---,0.00,VWS V14.01,2013-08-22 15:49:00,
2013-08-22 14:58:00,82.7,41.2,29.70,SE,131,0.0,1.0,23,0.00,,---,0.00,VWS V14.01,2013-08-22 21:58:00,
2013-08-22 15:03:00,83.2,41.6,29.70,South,190,5.0,5.0,23,0.00,,---,0.00,VWS V14.01,2013-08-22 22:03:00,
2013-08-22 15:08:00,83.4,41.8,29.70,East,93,1.0,1.0,23,0.00,,---,0.00,VWS V14.01,2013-08-22 22:08:00,
2013-08-22 15:13:00,83.7,40.9,29.70,South,181,1.0,1.0,22,0.00,,---,0.00,VWS V14.01,2013-08-22 22:13:00,
2013-08-22 15:18:00,83.6,40.8,29.70,East,90,0.0,0.0,22,0.00,,---,0.00,VWS V14.01,2013-08-22 22:18:00,
2013-08-22 15:23:00,83.1,40.4,29.69,North,1,2.0,2.0,22,0.00,,---,0.00,VWS V14.01,2013-08-22 22:23:00,
2013-08-22 15:28:00,82.8,41.3,29.69,NW,312,1.0,1.0,23,0.00,,---,0.00,VWS V14.01,2013-08-22 22:28:00,
2013-08-22 15:33:00,82.7,41.2,29.69,WSW,250,0.0,0.0,23,0.00,,---,0.00,VWS V14.01,2013-08-22 22:33:00,
2013-08-22 15:38:00,82.8,41.3,29.69,South,169,1.0,1.0,23,0.00,,---,0.00,VWS V14.01,2013-08-22 22:38:00,
2013-08-22 15:43:00,82.5,41.0,29.69,East,98,1.0,2.0,23,0.00,,---,0.00,VWS V14.01,2013-08-22 22:43:00,
2013-08-22 15:48:00,82.0,40.6,29.69,ESE,111,0.0,1.0,23,0.00,,---,0.00,VWS V14.01,2013-08-22 22:48:00,
2013-08-22 15:53:00,81.8,40.4,29.68,ENE,63,1.0,2.0,23,0.00,,---,0.00,VWS V14.01,2013-08-22 22:53:00,
2013-08-22 15:58:00,81.7,40.3,29.68,East,94,0.0,0.0,23,0.00,,---,0.00,VWS V14.01,2013-08-22 22:58:00,
2013-08-22 16:03:00,81.6,41.3,29.68,SW,231,0.0,1.0,24,0.00,,---,0.00,VWS V14.01,2013-08-22 23:03:00,
2013-08-22 16:08:00,81.6,41.3,29.68,SW,221,0.0,0.0,24,0.00,,---,0.00,VWS V14.01,2013-08-22 23:08:00,
2013-08-22 16:13:00,81.5,41.3,29.68,ENE,65,0.0,0.0,24,0.00,,---,0.00,VWS V14.01,2013-08-22 23:13:00,
2013-08-22 16:19:00,81.5,41.3,29.68,West,271,1.0,2.0,24,0.00,,---,0.00,VWS V14.01,2013-08-22 23:19:00,
2013-08-22 16:24:00,81.4,41.2,29.67,North,354,2.0,2.0,24,0.00,,---,0.00,VWS V14.01,2013-08-22 23:24:00,
2013-08-22 16:29:00,81.3,41.1,29.67,SSW,207,1.0,1.0,24,0.00,,---,0.00,VWS V14.01,2013-08-22 23:29:00,
2013-08-22 16:34:00,81.0,41.9,29.67,SW,215,0.0,1.0,25,0.00,,---,0.00,VWS V14.01,2013-08-22 23:34:00,
2013-08-22 16:39:00,80.8,41.7,29.67,SSE,166,2.0,2.0,25,0.00,,---,0.00,VWS V14.01,2013-08-22 23:39:00,
2013-08-22 16:44:00,80.8,41.7,29.67,WSW,250,0.0,0.0,25,0.00,,---,0.00,VWS V14.01,2013-08-22 23:44:00,
2013-08-22 16:49:00,80.4,41.4,29.67,SSW,200,1.0,1.0,25,0.00,,---,0.00,VWS V14.01,2013-08-22 23:49:00,
2013-08-22 16:54:00,80.3,42.3,29.67,North,9,0.0,0.0,26,0.00,,---,0.00,VWS V14.01,2013-08-22 23:54:00,
2013-08-22 16:59:00,80.5,41.5,29.67,SSW,195,2.0,2.0,25,0.00,,---,0.00,VWS V14.01,2013-08-22 23:59:00,
2013-08-22 17:04:00,80.5,42.5,29.67,East,96,1.0,1.0,26,0.00,,---,0.00,VWS V14.01,2013-08-23 00:04:00,
2013-08-22 17:09:00,80.5,42.5,29.67,NW,326,2.0,2.0,26,0.00,,---,0.00,VWS V14.01,2013-08-23 00:09:00,
2013-08-22 17:14:00,80.0,42.1,29.67,West,276,2.0,2.0,26,0.00,,---,0.00,VWS V14.01,2013-08-23 00:14:00,
2013-08-22 17:19:00,79.5,41.7,29.67,SSW,203,1.0,2.0,26,0.00,,---,0.00,VWS V14.01,2013-08-23 00:19:00,
2013-08-22 17:24:00,79.2,42.4,29.67,NNW,340,0.0,1.0,27,0.00,,---,0.00,VWS V14.01,2013-08-23 00:24:00,
2013-08-22 17:29:00,78.9,42.1,29.67,ENE,69,0.0,0.0,27,0.00,,---,0.00,VWS V14.01,2013-08-23 00:29:00,
2013-08-22 17:34:00,78.8,42.0,29.67,ENE,68,1.0,1.0,27,0.00,,---,0.00,VWS V14.01,2013-08-23 00:34:00,
2013-08-22 17:39:00,78.3,42.5,29.67,North,3,0.0,0.0,28,0.00,,---,0.00,VWS V14.01,2013-08-23 00:39:00,
2013-08-22 17:44:00,78.3,42.5,29.67,SSE,150,1.0,3.0,28,0.00,,---,0.00,VWS V14.01,2013-08-23 00:44:00,
2013-08-22 17:49:00,78.1,41.4,29.67,ESE,103,1.0,2.0,27,0.00,,---,0.00,VWS V14.01,2013-08-23 00:49:00,
2013-08-22 17:54:00,77.7,42.0,29.67,SSW,203,0.0,1.0,28,0.00,,---,0.00,VWS V14.01,2013-08-23 00:54:00,
2013-08-22 17:59:00,77.6,42.0,29.67,SE,134,1.0,4.0,28,0.00,,---,0.00,VWS V14.01,2013-08-23 00:59:00,
2013-08-22 18:04:00,77.5,41.9,29.67,SE,132,1.0,1.0,28,0.00,,---,0.00,VWS V14.01,2013-08-23 01:04:00,
2013-08-22 18:09:00,76.9,41.3,29.67,South,176,0.0,0.0,28,0.00,,---,0.00,VWS V14.01,2013-08-23 01:09:00,
2013-08-22 18:14:00,76.4,40.9,29.67,WSW,257,0.0,0.0,28,0.00,,---,0.00,VWS V14.01,2013-08-23 01:14:00,
2013-08-22 18:19:00,75.9,41.4,29.67,ESE,104,1.0,1.0,29,0.00,,---,0.00,VWS V14.01,2013-08-23 01:19:00,
2013-08-22 18:24:00,75.4,41.0,29.67,WNW,301,0.0,0.0,29,0.00,,---,0.00,VWS V14.01,2013-08-23 01:24:00,
2013-08-22 18:29:00,74.8,40.5,29.67,SSW,205,0.0,0.0,29,0.00,,---,0.00,VWS V14.01,2013-08-23 01:29:00,
2013-08-22 18:34:00,74.2,40.8,29.67,SW,224,0.0,0.0,30,0.00,,---,0.00,VWS V14.01,2013-08-23 01:34:00,
2013-08-22 18:39:00,73.7,41.2,29.68,WNW,295,1.0,1.0,31,0.00,,---,0.00,VWS V14.01,2013-08-23 01:39:00,
2013-08-22 18:44:00,73.0,40.6,29.68,ESE,104,0.0,0.0,31,0.00,,---,0.00,VWS V14.01,2013-08-23 01:44:00,
2013-08-22 18:49:00,72.6,40.3,29.68,WNW,290,0.0,0.0,31,0.00,,---,0.00,VWS V14.01,2013-08-23 01:49:00,
2013-08-22 18:54:00,72.3,40.8,29.68,SSW,195,0.0,0.0,32,0.00,,---,0.00,VWS V14.01,2013-08-23 01:54:00,
2013-08-22 18:59:00,72.2,40.7,29.68,SSW,195,0.0,0.0,32,0.00,,---,0.00,VWS V14.01,2013-08-23 01:59:00,
2013-08-22 19:04:00,72.0,40.6,29.69,WNW,288,0.0,0.0,32,0.00,,---,0.00,VWS V14.01,2013-08-23 02:04:00,
2013-08-22 19:10:00,71.5,40.9,29.69,NNW,338,0.0,0.0,33,0.00,,---,0.00,VWS V14.01,2013-08-23 02:10:00,
2013-08-22 19:15:00,70.9,40.4,29.69,NNW,338,0.0,0.0,33,0.00,,---,0.00,VWS V14.01,2013-08-23 02:15:00,
2013-08-22 19:20:00,70.2,40.5,29.69,NNW,337,0.0,0.0,34,0.00,,---,0.00,VWS V14.01,2013-08-23 02:20:00,
2013-08-22 19:25:00,69.6,40.0,29.70,NNW,337,0.0,0.0,34,0.00,,---,0.00,VWS V14.01,2013-08-23 02:25:00,
2013-08-22 19:30:00,68.9,40.2,29.70,NNW,337,0.0,0.0,35,0.00,,---,0.00,VWS V14.01,2013-08-23 02:30:00,
2013-08-22 19:35:00,68.2,39.5,29.70,NNW,337,0.0,0.0,35,0.00,,---,0.00,VWS V14.01,2013-08-23 02:35:00,
2013-08-22 19:40:00,67.6,39.7,29.70,NNW,337,0.0,0.0,36,0.00,,---,0.00,VWS V14.01,2013-08-23 02:40:00,
2013-08-22 19:45:00,67.1,39.3,29.70,NNW,337,0.0,0.0,36,0.00,,---,0.00,VWS V14.01,2013-08-23 02:45:00,
2013-08-22 19:50:00,66.6,39.5,29.70,NNW,337,0.0,0.0,37,0.00,,---,0.00,VWS V14.01,2013-08-23 02:50:00,
2013-08-22 19:55:00,66.2,39.2,29.71,NNW,337,0.0,0.0,37,0.00,,---,0.00,VWS V14.01,2013-08-23 02:55:00,
2013-08-22 20:00:00,65.9,38.9,29.71,NNW,337,0.0,0.0,37,0.00,,---,0.00,VWS V14.01,2013-08-23 03:00:00,
2013-08-22 20:05:00,65.5,39.2,29.71,NNW,337,0.0,0.0,38,0.00,,---,0.00,VWS V14.01,2013-08-23 03:05:00,
2013-08-22 20:10:00,65.1,38.9,29.71,NNW,337,0.0,0.0,38,0.00,,---,0.00,VWS V14.01,2013-08-23 03:10:00,
2013-08-22 20:15:00,64.7,39.2,29.72,NNW,338,0.0,0.0,39,0.00,,---,0.00,VWS V14.01,2013-08-23 03:15:00,
2013-08-22 20:20:00,64.5,39.0,29.72,NNW,327,0.0,0.0,39,0.00,,---,0.00,VWS V14.01,2013-08-23 03:20:00,
2013-08-22 20:25:00,64.5,39.0,29.72,NNW,327,0.0,0.0,39,0.00,,---,0.00,VWS V14.01,2013-08-23 03:25:00,
2013-08-22 20:30:00,64.4,38.9,29.73,WSW,248,0.0,0.0,39,0.00,,---,0.00,VWS V14.01,2013-08-23 03:30:00,
2013-08-22 20:35:00,64.3,38.8,29.73,WSW,248,0.0,0.0,39,0.00,,---,0.00,VWS V14.01,2013-08-23 03:35:00,
2013-08-22 20:40:00,64.2,38.8,29.73,WSW,248,0.0,0.0,39,0.00,,---,0.00,VWS V14.01,2013-08-23 03:40:00,
2013-08-22 20:45:00,64.1,39.3,29.73,WSW,245,0.0,0.0,40,0.00,,---,0.00,VWS V14.01,2013-08-23 03:45:00,
2013-08-22 20:50:00,63.8,39.0,29.73,WSW,245,0.0,0.0,40,0.00,,---,0.00,VWS V14.01,2013-08-23 03:50:00,
2013-08-22 20:55:00,63.6,38.9,29.74,WSW,245,0.0,0.0,40,0.00,,---,0.00,VWS V14.01,2013-08-23 03:55:00,
2013-08-22 21:00:00,63.4,38.7,29.74,WSW,245,0.0,0.0,40,0.00,,---,0.00,VWS V14.01,2013-08-23 04:00:00,
2013-08-22 21:01:00,63.4,38.7,29.74,WSW,245,0.0,0.0,40,0.00,,---,0.00,VWS V14.01,2013-08-23 04:01:00,
2013-08-22 21:02:00,63.3,38.6,29.74,WSW,245,0.0,0.0,40,0.00,,---,0.00,VWS V14.01,2013-08-23 04:02:00,
2013-08-22 21:03:00,63.3,39.2,29.74,WSW,245,0.0,0.0,41,0.00,,---,0.00,VWS V14.01,2013-08-23 04:03:00,
2013-08-22 21:04:00,63.2,39.1,29.74,WSW,245,0.0,0.0,41,0.00,,---,0.00,VWS V14.01,2013-08-23 04:04:00,
2013-08-22 21:09:00,63.0,39.0,29.74,WSW,245,0.0,0.0,41,0.00,,---,0.00,VWS V14.01,2013-08-23 04:09:00,
2013-08-22 21:14:00,62.8,38.8,29.74,WSW,245,0.0,0.0,41,0.00,,---,0.00,VWS V14.01,2013-08-23 04:14:00,
2013-08-22 21:19:00,62.7,39.3,29.74,SSW,198,0.0,0.0,42,0.00,,---,0.00,VWS V14.01,2013-08-23 04:19:00,
2013-08-22 21:24:00,62.6,38.6,29.74,SSW,198,0.0,0.0,41,0.00,,---,0.00,VWS V14.01,2013-08-23 04:24:00,
2013-08-22 21:29:00,62.4,39.0,29.74,SSW,198,0.0,0.0,42,0.00,,---,0.00,VWS V14.01,2013-08-23 04:29:00,
2013-08-22 21:34:00,62.1,38.8,29.74,SSW,198,0.0,0.0,42,0.00,,---,0.00,VWS V14.01,2013-08-23 04:34:00,
2013-08-22 21:39:00,62.0,39.3,29.74,SW,233,0.0,0.0,43,0.00,,---,0.00,VWS V14.01,2013-08-23 04:39:00,
2013-08-22 21:44:00,62.0,39.3,29.74,SW,233,0.0,0.0,43,0.00,,---,0.00,VWS V14.01,2013-08-23 04:44:00,
2013-08-22 21:49:00,61.8,39.1,29.74,SW,233,0.0,0.0,43,0.00,,---,0.00,VWS V14.01,2013-08-23 04:49:00,
2013-08-22 21:54:00,61.4,39.3,29.74,SW,233,0.0,0.0,44,0.00,,---,0.00,VWS V14.01,2013-08-23 04:54:00,
2013-08-22 21:59:00,61.1,39.6,29.74,SW,233,0.0,0.0,45,0.00,,---,0.00,VWS V14.01,2013-08-23 04:59:00,
2013-08-22 22:04:00,60.8,39.9,29.74,SW,233,0.0,0.0,46,0.00,,---,0.00,VWS V14.01,2013-08-23 05:04:00,
2013-08-22 22:09:00,60.6,40.3,29.74,WSW,243,0.0,0.0,47,0.00,,---,0.00,VWS V14.01,2013-08-23 05:09:00,
2013-08-22 22:15:00,60.6,41.4,29.74,WNW,288,0.0,1.0,49,0.00,,---,0.00,VWS V14.01,2013-08-23 05:15:00,
2013-08-22 22:20:00,61.5,41.7,29.74,WNW,282,0.0,0.0,48,0.00,,---,0.00,VWS V14.01,2013-08-23 05:20:00,
2013-08-22 22:25:00,62.2,41.2,29.73,SW,214,0.0,1.0,46,0.00,,---,0.00,VWS V14.01,2013-08-23 05:25:00,
2013-08-22 22:30:00,62.2,40.6,29.74,SW,214,0.0,0.0,45,0.00,,---,0.00,VWS V14.01,2013-08-23 05:30:00,
2013-08-22 22:35:00,62.1,40.5,29.74,SW,214,0.0,0.0,45,0.00,,---,0.00,VWS V14.01,2013-08-23 05:35:00,
2013-08-22 22:40:00,62.0,40.4,29.74,WNW,285,0.0,0.0,45,0.00,,---,0.00,VWS V14.01,2013-08-23 05:40:00,
2013-08-22 22:45:00,61.9,40.9,29.74,WNW,285,0.0,0.0,46,0.00,,---,0.00,VWS V14.01,2013-08-23 05:45:00,
2013-08-22 22:50:00,61.8,40.8,29.73,NNE,25,0.0,0.0,46,0.00,,---,0.00,VWS V14.01,2013-08-23 05:50:00,
2013-08-22 22:55:00,61.4,41.0,29.73,NNE,25,0.0,0.0,47,0.00,,---,0.00,VWS V14.01,2013-08-23 05:55:00,
2013-08-22 23:00:00,61.0,41.2,29.73,NNE,25,0.0,0.0,48,0.00,,---,0.00,VWS V14.01,2013-08-23 06:00:00,
2013-08-22 23:05:00,60.6,40.8,29.74,NNE,25,0.0,0.0,48,0.00,,---,0.00,VWS V14.01,2013-08-23 06:05:00,
2013-08-22 23:10:00,60.1,40.9,29.73,NNE,25,0.0,0.0,49,0.00,,---,0.00,VWS V14.01,2013-08-23 06:10:00,
2013-08-22 23:15:00,59.7,41.0,29.73,NNE,25,0.0,0.0,50,0.00,,---,0.00,VWS V14.01,2013-08-23 06:15:00,
2013-08-22 23:20:00,59.3,40.7,29.73,NNE,25,0.0,0.0,50,0.00,,---,0.00,VWS V14.01,2013-08-23 06:20:00,
2013-08-22 23:25:00,59.1,41.0,29.73,NNE,25,0.0,0.0,51,0.00,,---,0.00,VWS V14.01,2013-08-23 06:25:00,
2013-08-22 23:30:00,59.0,40.9,29.73,NNE,24,0.0,0.0,51,0.00,,---,0.00,VWS V14.01,2013-08-23 06:30:00,
2013-08-22 23:35:00,58.8,40.7,29.73,NNE,24,0.0,0.0,51,0.00,,---,0.00,VWS V14.01,2013-08-23 06:35:00,
2013-08-22 23:40:00,58.5,41.0,29.73,NNE,24,0.0,0.0,52,0.00,,---,0.00,VWS V14.01,2013-08-23 06:40:00,
2013-08-22 23:45:00,58.2,40.2,29.73,NNE,25,0.0,0.0,51,0.00,,---,0.00,VWS V14.01,2013-08-23 06:45:00,
2013-08-22 23:50:00,57.8,39.8,29.74,NNE,25,0.0,0.0,51,0.00,,---,0.00,VWS V14.01,2013-08-23 06:50:00,
2013-08-22 23:55:00,57.8,39.8,29.74,NNE,26,0.0,0.0,51,0.00,,---,0.00,VWS V14.01,2013-08-23 06:55:00,